This is the latest recevied weather packets stored in our database for station/object KD0TGF-W. If no packets are shown the sender has not sent any weather packets the latest 10 day(s).
| Time | Temp. | Humidity | Pressure | Rain* | Wind** | Luminosity | Snow |
|---|---|---|---|---|---|---|---|
| 1777484601 | 10.56° C | 44% | 1017.5 hPa | 0 mm | - | - | - |
| 1777484540 | 10.56° C | 44% | 1017.6 hPa | 0 mm | - | - | - |
| 1777484480 | 10.56° C | 46% | 1017.6 hPa | 0 mm | - | - | - |
| 1777484420 | 10.56° C | 44% | 1017.6 hPa | 0 mm | - | - | - |
| 1777484360 | 10.56° C | 45% | 1017.5 hPa | 0 mm | - | - | - |
| 1777484301 | 11.11° C | 46% | 1017.5 hPa | 0 mm | - | - | - |
| 1777484240 | 11.11° C | 47% | 1017.5 hPa | 0 mm | - | - | - |
| 1777484180 | 11.11° C | 46% | 1017.4 hPa | 0 mm | - | - | - |
| 1777484120 | 11.11° C | 44% | 1017.6 hPa | 0 mm | - | - | - |
| 1777484061 | 11.11° C | 44% | 1017.6 hPa | 0 mm | - | - | - |
| 1777484000 | 10.56° C | 47% | 1017.6 hPa | 0 mm | - | - | - |
| 1777483940 | 10.56° C | 45% | 1017.6 hPa | 0 mm | - | - | - |
| 1777483880 | 10.56° C | 46% | 1017.7 hPa | 0 mm | - | - | - |
| 1777483821 | 10.56° C | 45% | 1017.6 hPa | 0 mm | - | - | - |
| 1777483760 | 10.56° C | 45% | 1017.6 hPa | 0 mm | - | - | - |
| 1777483700 | 10.56° C | 45% | 1017.6 hPa | 0 mm | - | - | - |
| 1777483640 | 10.56° C | 45% | 1017.6 hPa | 0 mm | - | - | - |
| 1777483580 | 10.56° C | 44% | 1017.6 hPa | 0 mm | - | - | - |
| 1777483520 | 10.56° C | 44% | 1017.6 hPa | 0 mm | - | - | - |
| 1777483460 | 11.11° C | 46% | 1017.7 hPa | 0 mm | - | - | - |
| 1777483400 | 11.11° C | 46% | 1017.7 hPa | 0 mm | - | - | - |
| 1777483340 | 11.11° C | 49% | 1017.7 hPa | 0 mm | - | - | - |
| 1777483280 | 10.56° C | 46% | 1017.8 hPa | 0 mm | - | - | - |
| 1777483220 | 10.56° C | 46% | 1017.7 hPa | 0 mm | - | - | - |
| 1777483160 | 10.56° C | 48% | 1017.8 hPa | 0 mm | - | - | - |
* Rain latest hour (hover to see other rain measurements)
** Current wind speed in m/s (hover to see current wind gust speed)